TimeCST,TemperatureF,Dew PointF,Humidity,Sea Level PressureIn,VisibilityMPH,Wind Direction,Wind SpeedMPH,Gust SpeedMPH,PrecipitationIn,Events,Conditions,WindDirDegrees,DateUTC
12:15 AM,34.0,28.4,80,30.19,7.0,East,3.5,-,N/A,,Clear,100,2012-11-04 05:15:00
12:35 AM,33.8,28.8,82,30.19,10.0,SE,3.5,-,N/A,,Clear,130,2012-11-04 05:35:00
12:55 AM,34.7,28.8,79,30.18,10.0,SE,4.6,-,N/A,,Clear,140,2012-11-04 05:55:00
1:15 AM,36.3,29.3,76,30.19,10.0,SSE,4.6,-,N/A,,Clear,150,2012-11-04 06:15:00
1:35 AM,35.1,28.9,78,30.19,10.0,SSE,4.6,-,N/A,,Clear,150,2012-11-04 06:35:00
1:55 AM,37.0,30.7,78,30.19,10.0,South,4.6,-,N/A,,Mostly Cloudy,170,2012-11-04 06:55:00
1:15 AM,38.1,30.7,75,30.19,10.0,SSE,3.5,-,N/A,,Overcast,160,2012-11-04 07:15:00
1:35 AM,38.3,31.5,76,30.19,10.0,SSE,3.5,-,N/A,,Overcast,150,2012-11-04 07:35:00
1:55 AM,39.0,31.6,75,30.20,10.0,Calm,Calm,-,N/A,,Overcast,0,2012-11-04 07:55:00
2:15 AM,38.5,32.0,78,30.19,10.0,Calm,Calm,-,N/A,,Overcast,0,2012-11-04 08:15:00
2:35 AM,38.5,32.0,78,30.20,10.0,Calm,Calm,-,N/A,,Overcast,0,2012-11-04 08:35:00
2:55 AM,39.2,32.2,76,30.19,10.0,South,3.5,-,N/A,,Overcast,180,2012-11-04 08:55:00
3:15 AM,39.2,32.0,75,30.19,10.0,SE,3.5,-,N/A,,Overcast,140,2012-11-04 09:15:00
3:35 AM,39.4,32.2,75,30.19,10.0,Calm,Calm,-,N/A,,Overcast,0,2012-11-04 09:35:00
3:55 AM,39.2,32.5,77,30.19,10.0,South,3.5,-,N/A,,Overcast,180,2012-11-04 09:55:00
4:15 AM,39.4,32.4,76,30.19,10.0,Calm,Calm,-,N/A,,Overcast,0,2012-11-04 10:15:00
4:35 AM,39.4,32.2,75,30.19,10.0,Calm,Calm,-,N/A,,Overcast,0,2012-11-04 10:35:00
4:55 AM,39.2,32.9,78,30.19,10.0,Calm,Calm,-,N/A,,Overcast,0,2012-11-04 10:55:00
5:15 AM,39.2,32.7,78,30.19,10.0,Calm,Calm,-,N/A,,Overcast,0,2012-11-04 11:15:00
5:35 AM,39.4,32.9,78,30.19,10.0,Calm,Calm,-,N/A,,Overcast,0,2012-11-04 11:35:00
5:55 AM,39.4,32.9,78,30.19,10.0,Calm,Calm,-,N/A,,Overcast,0,2012-11-04 11:55:00
6:15 AM,39.4,32.9,78,30.19,10.0,Calm,Calm,-,N/A,,Overcast,0,2012-11-04 12:15:00
6:35 AM,39.4,32.4,76,30.19,10.0,Calm,Calm,-,N/A,,Overcast,0,2012-11-04 12:35:00
6:55 AM,39.4,32.9,78,30.19,10.0,SSE,3.5,-,N/A,,Overcast,160,2012-11-04 12:55:00
7:15 AM,39.4,33.3,79,30.20,10.0,South,3.5,-,N/A,,Overcast,170,2012-11-04 13:15:00
7:35 AM,40.1,33.4,77,30.21,10.0,South,3.5,-,N/A,,Mostly Cloudy,180,2012-11-04 13:35:00
7:55 AM,40.6,33.8,77,30.21,10.0,South,4.6,-,N/A,,Overcast,190,2012-11-04 13:55:00
8:15 AM,41.0,33.8,76,30.21,10.0,South,3.5,-,N/A,,Overcast,180,2012-11-04 14:15:00
8:35 AM,41.4,34.7,77,30.21,10.0,South,3.5,-,N/A,,Overcast,180,2012-11-04 14:35:00
8:55 AM,42.1,35.8,78,30.20,10.0,South,4.6,-,N/A,,Overcast,180,2012-11-04 14:55:00
9:15 AM,43.3,35.8,75,30.20,10.0,Calm,Calm,-,N/A,,Overcast,0,2012-11-04 15:15:00
9:35 AM,44.1,36.3,74,30.19,10.0,SSE,3.5,-,N/A,,Overcast,160,2012-11-04 15:35:00
9:55 AM,45.1,36.9,73,30.19,10.0,South,4.6,-,N/A,,Overcast,190,2012-11-04 15:55:00
10:15 AM,45.0,36.7,73,30.19,10.0,SSE,4.6,-,N/A,,Overcast,160,2012-11-04 16:15:00
10:35 AM,45.0,37.4,75,30.19,10.0,SSE,4.6,-,N/A,,Light Drizzle,160,2012-11-04 16:35:00
10:55 AM,46.0,37.9,73,30.19,10.0,SSE,4.6,-,N/A,,Overcast,150,2012-11-04 16:55:00
11:15 AM,46.9,38.3,72,30.18,10.0,SE,4.6,-,N/A,,Overcast,140,2012-11-04 17:15:00
11:35 AM,48.2,38.7,70,30.17,10.0,SE,4.6,-,N/A,,Overcast,130,2012-11-04 17:35:00
11:55 AM,50.0,38.8,66,30.16,10.0,SE,4.6,-,N/A,,Overcast,130,2012-11-04 17:55:00
12:15 PM,52.0,38.5,60,30.15,10.0,SE,4.6,-,N/A,,Overcast,140,2012-11-04 18:15:00
12:35 PM,54.1,36.7,52,30.14,10.0,SSE,6.9,-,N/A,,Overcast,150,2012-11-04 18:35:00
12:55 PM,53.8,34.2,47,30.13,10.0,SSE,8.1,-,N/A,,Overcast,150,2012-11-04 18:55:00
1:15 PM,53.4,34.5,49,30.12,10.0,SSE,6.9,-,N/A,,Overcast,150,2012-11-04 19:15:00
1:35 PM,53.6,35.8,51,30.11,10.0,SSE,8.1,-,N/A,,Overcast,150,2012-11-04 19:35:00
1:55 PM,54.5,36.9,51,30.10,10.0,SE,9.2,-,N/A,,Overcast,130,2012-11-04 19:55:00
2:15 PM,55.0,34.2,45,30.09,10.0,SE,8.1,-,N/A,,Mostly Cloudy,140,2012-11-04 20:15:00
2:35 PM,54.3,34.9,48,30.09,10.0,SSE,9.2,-,N/A,,Overcast,150,2012-11-04 20:35:00
2:55 PM,53.8,36.1,51,30.09,10.0,SE,8.1,-,N/A,,Overcast,140,2012-11-04 20:55:00
3:15 PM,53.8,38.1,55,30.09,10.0,SE,10.4,-,N/A,,Overcast,130,2012-11-04 21:15:00
3:35 PM,53.2,38.5,57,30.08,10.0,SE,11.5,-,N/A,,Overcast,130,2012-11-04 21:35:00
3:55 PM,52.7,39.4,61,30.07,10.0,ESE,10.4,-,N/A,,Overcast,120,2012-11-04 21:55:00
4:15 PM,52.0,39.4,62,30.07,10.0,SE,10.4,-,N/A,,Overcast,130,2012-11-04 22:15:00
4:35 PM,51.4,39.2,63,30.07,10.0,SE,5.8,-,N/A,,Overcast,130,2012-11-04 22:35:00
4:55 PM,51.1,39.4,64,30.08,10.0,SE,6.9,-,N/A,,Overcast,130,2012-11-04 22:55:00
5:15 PM,50.5,39.7,66,30.08,10.0,SE,6.9,-,N/A,,Overcast,130,2012-11-04 23:15:00
5:35 PM,50.2,39.6,67,30.08,10.0,SE,5.8,-,N/A,,Overcast,130,2012-11-04 23:35:00
5:55 PM,50.0,39.7,68,30.09,10.0,ESE,4.6,-,N/A,,Overcast,110,2012-11-04 23:55:00
6:15 PM,49.1,40.5,72,30.09,10.0,East,6.9,-,N/A,,Overcast,100,2012-11-05 00:15:00
6:35 PM,48.2,41.0,76,30.09,10.0,ESE,5.8,-,N/A,,Drizzle,110,2012-11-05 00:35:00
6:55 PM,47.3,41.2,79,30.09,10.0,ESE,8.1,-,N/A,,Light Drizzle,120,2012-11-05 00:55:00
7:15 PM,46.8,41.2,81,30.09,10.0,ESE,9.2,-,N/A,,Light Drizzle,120,2012-11-05 01:15:00
7:35 PM,46.4,41.2,82,30.08,10.0,ESE,9.2,-,N/A,,Light Drizzle,120,2012-11-05 01:35:00
7:55 PM,45.9,41.2,84,30.08,10.0,ESE,8.1,-,N/A,,Light Drizzle,110,2012-11-05 01:55:00
8:15 PM,45.5,41.4,85,30.08,10.0,ESE,9.2,-,N/A,,Drizzle,110,2012-11-05 02:15:00
8:35 PM,45.3,41.4,86,30.08,7.0,ESE,9.2,-,N/A,,Drizzle,120,2012-11-05 02:35:00
8:55 PM,45.0,41.0,86,30.08,7.0,SE,9.2,-,N/A,,Drizzle,130,2012-11-05 02:55:00
9:15 PM,44.6,40.6,86,30.07,7.0,ESE,10.4,-,N/A,,Light Drizzle,120,2012-11-05 03:15:00
9:35 PM,44.1,40.5,87,30.07,7.0,ESE,12.7,-,N/A,,Overcast,120,2012-11-05 03:35:00
9:55 PM,43.9,40.6,88,30.06,7.0,SE,11.5,16.1,N/A,,Overcast,130,2012-11-05 03:55:00
10:15 PM,43.7,40.5,88,30.06,7.0,SE,12.7,-,N/A,,Overcast,130,2012-11-05 04:15:00
10:35 PM,43.7,40.5,88,30.06,7.0,SE,12.7,17.3,N/A,,Drizzle,140,2012-11-05 04:35:00
10:55 PM,43.5,40.5,89,30.05,7.0,SE,10.4,-,N/A,,Drizzle,140,2012-11-05 04:55:00